When you browse on this site, cookies collect data to enhance your experience and personalize the content and advertising you see.
Visit our Privacy Policy to learn more. By continuing to use the site, you agree to this use of cookies and data.
  • In United Kingdom
  • List of Countries
  • For 7 days
  • Water Temperature
  • Satellite Maps
  • Weather Map
  • Weather Widgets
  • user-avatar
    Login

    Hourly Weather Surty

    Today, 23 April, Tuesday

    Time Temperature Precipitation Wind Pressure Humidity
    00:00 +7°C° 0 mm 2 mps 756 mmHg 71%
    01:00 +7°C° 0 mm 2 mps 756 mmHg 72%
    02:00 +6°C° 0 mm 2 mps 756 mmHg 73%
    03:00 +5°C° 0 mm 2 mps 756 mmHg 74%
    04:00 +6°C° 0 mm 2 mps 756 mmHg 75%
    05:00 +6°C° 0 mm 2 mps 756 mmHg 75%
    06:00 +6°C° 0 mm 2 mps 756 mmHg 76%
    07:00 +7°C° 0 mm 3 mps 756 mmHg 73%
    08:00 +8°C° 0 mm 3 mps 756 mmHg 70%
    09:00 +9°C° 0 mm 3 mps 756 mmHg 66%
    10:00 +10°C° 0 mm 3 mps 756 mmHg 65%
    11:00 +11°C° 0 mm 3 mps 756 mmHg 63%
    12:00 +11°C° 0 mm 3 mps 756 mmHg 61%
    13:00 +11°C° 0.1 mm 3 mps 756 mmHg 58%
    14:00 +12°C° 0.1 mm 4 mps 756 mmHg 54%
    15:00 +12°C° 0.1 mm 4 mps 756 mmHg 51%
    16:00 +12°C° 0 mm 3 mps 756 mmHg 53%
    17:00 +12°C° 0 mm 2 mps 756 mmHg 55%
    18:00 +10°C° 0 mm 2 mps 756 mmHg 58%
    19:00 +10°C° 0 mm 1 mps 756 mmHg 62%
    20:00 +9°C° 0 mm 1 mps 756 mmHg 67%
    21:00 +7°C° 0 mm 1 mps 757 mmHg 72%
    22:00 +7°C° 0 mm 1 mps 757 mmHg 73%
    23:00 +6°C° 0 mm 1 mps 757 mmHg 74%

    Tomorrow, 24 April, Wednesday

    Time Temperature Precipitation Wind Pressure Humidity
    00:00 +6°C° 0 mm 1 mps 757 mmHg 75%
    01:00 +6°C° 0 mm 1 mps 756 mmHg 78%
    02:00 +4°C° 0 mm 2 mps 756 mmHg 81%
    03:00 +4°C° 0 mm 2 mps 756 mmHg 83%
    04:00 +4°C° 0 mm 3 mps 756 mmHg 81%
    05:00 +4°C° 0 mm 3 mps 756 mmHg 80%
    06:00 +5°C° 0 mm 4 mps 755 mmHg 78%
    07:00 +7°C° 0 mm 4 mps 755 mmHg 72%
    08:00 +10°C° 0 mm 4 mps 755 mmHg 67%
    09:00 +12°C° 0 mm 4 mps 755 mmHg 61%
    10:00 +14°C° 0 mm 5 mps 755 mmHg 58%
    11:00 +15°C° 0 mm 5 mps 754 mmHg 54%
    12:00 +17°C° 0 mm 5 mps 754 mmHg 51%
    13:00 +17°C° 0 mm 5 mps 754 mmHg 50%
    14:00 +19°C° 0 mm 5 mps 754 mmHg 49%
    15:00 +19°C° 0 mm 5 mps 754 mmHg 48%
    16:00 +19°C° 0 mm 4 mps 754 mmHg 52%
    17:00 +18°C° 0 mm 4 mps 754 mmHg 56%
    18:00 +17°C° 0 mm 3 mps 754 mmHg 59%
    19:00 +16°C° 0 mm 3 mps 754 mmHg 65%
    20:00 +14°C° 0 mm 2 mps 755 mmHg 71%
    21:00 +13°C° 0 mm 2 mps 755 mmHg 76%
    22:00 +12°C° 0 mm 2 mps 755 mmHg 80%
    23:00 +10°C° 0 mm 2 mps 755 mmHg 83%

    Day after tomorrow, 25 April, Thursday

    Time Temperature Precipitation Wind Pressure Humidity
    00:00 +10°C° 0 mm 3 mps 755 mmHg 87%
    01:00 +9°C° 0 mm 2 mps 755 mmHg 89%
    02:00 +8°C° 0 mm 2 mps 755 mmHg 91%
    03:00 +8°C° 0 mm 2 mps 756 mmHg 94%
    04:00 +8°C° 0 mm 2 mps 756 mmHg 91%
    05:00 +8°C° 0 mm 3 mps 756 mmHg 89%
    06:00 +8°C° 0 mm 3 mps 756 mmHg 87%
    07:00 +9°C° 0 mm 3 mps 757 mmHg 78%
    08:00 +10°C° 0 mm 4 mps 757 mmHg 69%
    09:00 +11°C° 0 mm 4 mps 757 mmHg 60%
    10:00 +12°C° 0 mm 4 mps 757 mmHg 56%
    11:00 +13°C° 0 mm 5 mps 757 mmHg 52%
    12:00 +14°C° 0 mm 5 mps 757 mmHg 48%
    13:00 +14°C° 0 mm 5 mps 757 mmHg 49%
    14:00 +13°C° 0 mm 5 mps 757 mmHg 49%
    15:00 +13°C° 0 mm 5 mps 757 mmHg 50%
    16:00 +13°C° 0 mm 4 mps 757 mmHg 52%
    17:00 +12°C° 0 mm 4 mps 757 mmHg 53%
    18:00 +11°C° 0 mm 3 mps 757 mmHg 55%
    19:00 +10°C° 0 mm 2 mps 757 mmHg 59%
    20:00 +8°C° 0 mm 2 mps 757 mmHg 64%
    21:00 +8°C° 0 mm 1 mps 757 mmHg 69%
    22:00 +7°C° 0 mm 1 mps 757 mmHg 70%
    23:00 +7°C° 0 mm 1 mps 757 mmHg 71%

    26 April, Friday

    Time Temperature Precipitation Wind Pressure Humidity
    00:00 +6°C° 0 mm 1 mps 757 mmHg 73%
    01:00 +7°C° 0 mm 1 mps 757 mmHg 72%
    02:00 +6°C° 0 mm 2 mps 757 mmHg 72%
    03:00 +6°C° 0 mm 2 mps 758 mmHg 72%
    04:00 +6°C° 0 mm 2 mps 758 mmHg 72%
    05:00 +6°C° 0 mm 2 mps 758 mmHg 71%
    06:00 +5°C° 0 mm 3 mps 758 mmHg 70%
    07:00 +7°C° 0 mm 3 mps 758 mmHg 62%
    08:00 +8°C° 0 mm 3 mps 758 mmHg 55%
    09:00 +9°C° 0 mm 3 mps 759 mmHg 47%
    10:00 +9°C° 0 mm 3 mps 758 mmHg 43%
    11:00 +10°C° 0 mm 3 mps 758 mmHg 39%
    12:00 +11°C° 0 mm 3 mps 758 mmHg 35%
    13:00 +11°C° 0 mm 3 mps 758 mmHg 35%
    14:00 +13°C° 0 mm 2 mps 758 mmHg 34%
    15:00 +13°C° 0 mm 2 mps 757 mmHg 33%
    16:00 +13°C° 0 mm 2 mps 757 mmHg 36%
    17:00 +12°C° 0 mm 1 mps 757 mmHg 40%
    18:00 +12°C° 0 mm 1 mps 757 mmHg 44%
    19:00 +10°C° 0 mm 1 mps 757 mmHg 47%
    20:00 +9°C° 0 mm 1 mps 757 mmHg 49%
    21:00 +6°C° 0 mm 2 mps 756 mmHg 52%
    22:00 +6°C° 0 mm 2 mps 756 mmHg 54%
    23:00 +5°C° 0 mm 2 mps 756 mmHg 56%

    27 April, Saturday

    Time Temperature Precipitation Wind Pressure Humidity
    00:00 +5°C° 0 mm 2 mps 755 mmHg 58%
    01:00 +3°C° 0 mm 3 mps 755 mmHg 59%
    02:00 +3°C° 0 mm 3 mps 754 mmHg 60%
    03:00 +3°C° 0 mm 3 mps 754 mmHg 61%
    04:00 +4°C° 0 mm 3 mps 753 mmHg 65%
    05:00 +5°C° 0 mm 3 mps 753 mmHg 69%
    06:00 +7°C° 0 mm 3 mps 752 mmHg 73%
    07:00 +8°C° 0.1 mm 4 mps 752 mmHg 72%
    08:00 +11°C° 0.1 mm 4 mps 751 mmHg 70%
    09:00 +13°C° 0.1 mm 4 mps 751 mmHg 69%
    10:00 +15°C° 0 mm 4 mps 750 mmHg 62%
    11:00 +16°C° 0 mm 5 mps 750 mmHg 54%
    12:00 +19°C° 0 mm 6 mps 749 mmHg 47%
    13:00 +17°C° 0 mm 5 mps 748 mmHg 47%
    14:00 +17°C° 0 mm 5 mps 748 mmHg 48%
    15:00 +18°C° 0 mm 4 mps 747 mmHg 48%
    16:00 +17°C° 0 mm 3 mps 747 mmHg 50%
    17:00 +17°C° 0 mm 3 mps 747 mmHg 51%
    18:00 +17°C° 0 mm 2 mps 746 mmHg 53%
    19:00 +14°C° 0.4 mm 3 mps 746 mmHg 61%
    20:00 +13°C° 0.4 mm 3 mps 746 mmHg 69%
    21:00 +11°C° 0.4 mm 3 mps 746 mmHg 76%
    22:00 +11°C° 0.1 mm 3 mps 745 mmHg 80%
    23:00 +10°C° 0.1 mm 2 mps 745 mmHg 83%

    28 April, Sunday

    Time Temperature Precipitation Wind Pressure Humidity
    00:00 +10°C° 0.1 mm 2 mps 745 mmHg 86%
    01:00 +9°C° 0 mm 3 mps 745 mmHg 87%
    02:00 +8°C° 0 mm 3 mps 745 mmHg 88%
    03:00 +8°C° 0 mm 3 mps 746 mmHg 89%
    04:00 +6°C° 0.1 mm 4 mps 746 mmHg 87%
    05:00 +5°C° 0.1 mm 5 mps 747 mmHg 84%
    06:00 +5°C° 0.1 mm 5 mps 747 mmHg 81%
    07:00 +3°C° 0.4 mm 5 mps 748 mmHg 78%
    08:00 +3°C° 0.4 mm 5 mps 749 mmHg 75%
    09:00 +3°C° 0.4 mm 4 mps 750 mmHg 71%
    10:00 +5°C° 0 mm 5 mps 750 mmHg 62%
    11:00 +6°C° 0 mm 5 mps 751 mmHg 53%
    12:00 +7°C° 0 mm 6 mps 751 mmHg 43%
    13:00 +7°C° 0 mm 6 mps 752 mmHg 41%
    14:00 +5°C° 0 mm 6 mps 752 mmHg 38%
    15:00 +5°C° 0 mm 6 mps 753 mmHg 36%
    16:00 +4°C° 0 mm 6 mps 753 mmHg 38%
    17:00 +3°C° 0 mm 5 mps 754 mmHg 40%
    18:00 +3°C° 0 mm 5 mps 754 mmHg 42%
    19:00 +1°C° 0 mm 4 mps 755 mmHg 47%
    20:00 +1°C° 0 mm 3 mps 756 mmHg 51%
    21:00 +1°C° 0 mm 2 mps 756 mmHg 56%
    22:00 -1°C° 0 mm 2 mps 757 mmHg 57%
    23:00 -1°C° 0 mm 2 mps 757 mmHg 57%
    Show more